Location: *
(49.6619°S, 177.4603°W)
Time: 04:59:54
(UTC+00:00)

MetOp-A - Pass Details

Date: 31 January 2023
Orbit: 529 x 804 km, 98.4° (Epoch: 01 April)

Event Time Altitude Azimuth Distance (km) Brightness Sun altitude
Rises 09:46:59 0° 168° (SSE) 3,043 7.8 -16.5°
Reaches altitude 10° 09:49:19 10° 170° (S) 2,077 6.9 -16.7°
Maximum altitude 09:53:47 67° 252° (WSW) 669 3.8 -17.1°
Enters shadow 09:57:07 15° 332° (NNW) 1,599 5.4 -17.4°
